テンペル-スイフト-リニア彗星

11P/Tempel-Swift-LINEAR (2014)

English version
Home page
Updated on November 3, 2015

---------------------------------------------------------------------

・ プロフィール

・ 写真集

・ 軌道要素

Epoch 2014 Aug. 11.0 TT = JDT 2456880.5
T 2014 Aug. 26.92383 TT                                 MPC
q   1.5485933            (2000.0)            P               Q
n   0.15649366     Peri.  164.06587     +0.70655299     -0.67756639
a   3.4103966      Node   240.43623     +0.62093430     +0.73199320
e   0.5459199      Incl.   13.57593     +0.33944581     +0.07134238
P   6.30
From 47 observations 2001 Aug. 1-2014 Sept. 3, mean residual 0".7.

・ 光度変化

        m1 = 17.0 + 5 logΔ + 10.0 log r

        ※ 灰色の曲線は、m1 = 15.0 + 5 logΔ + 10.0 log r の光度曲線です。

---------------------------------------------------------------------

軌道要素はM.P.E.C. 2014-R70に掲載されたものです。
光度グラフはComet for Windowsで作成したものです。

---------------------------------------------------------------------

Copyright(C) Seiichi Yoshida (comet@aerith.net). All rights reserved.